AirNav   Everest Fuels
 
 351 users online  

NH40 Eagles Nest Airport
New London, New Hampshire, USA

GOING TO NEW LONDON?


FAA INFORMATION EFFECTIVE 21 MAY 2020

Location

FAA Identifier: NH40
Lat/Long: 43-24-16.7700N 071-57-01.2980W
43-24.279500N 071-57.021633W
43.4046583,-71.9503606
(estimated)
Elevation: 998 ft. / 304 m (estimated)
Variation: 16W (1985)
From city: 2 miles ESE of NEW LONDON, NH
Time zone: UTC -4 (UTC -5 during Standard Time)
Zip code: 03257

Airport Operations

Airport use: Private use. Permission required prior to landing
Activation date: 10/1981
Control tower: no
ARTCC: BOSTON CENTER
FSS: BANGOR FLIGHT SERVICE STATION
Attendance: AL DAYLIGHT HOURS
Segmented circle: no

Airport Communications

UNICOM: 122.8

Nearby radio navigation aids

VOR radial/distance  VOR name  Freq  Var
CONr319/19.8CONCORD VOR/DME112.9015W
LEBr160/20.1LEBANON VOR/DME113.7015W
EENr036/39.6KEENE VORTAC109.4014W

 
NDB name  Hdg/Dist  Freq  Var  ID
CLAREMONT099/18.523316WCNH -.-. -. ....
HANOVER166/20.427615WLAH .-.. .- ....

Airport Services

Runway Information

Runway 14/32

Dimensions: 2800 x 30 ft. / 853 x 9 m
Surface: asphalt, in fair condition
RUNWAY 14  RUNWAY 32
Traffic pattern: leftleft
Obstructions: plinenone

Airport Ownership and Management from official FAA records

Ownership: Privately-owned
Owner: EAGLES NEST OWNERS ASSN
PO BOX 2460
NEW LONDON, NH 03257
Phone 603-526-6040
Manager: MANAGER
PO BOX 2460
NEW LONDON, NH 03257
Phone 603-526-6040

Additional Remarks

DO NOT CHART.
RY 32 LAND ONLY. RY 14 DEPART ONLY
NOT MAINTAINED IN WINTER.
FOR CD CTC BOSTON ARTCC AT 603-879-6859.

Instrument Procedures

There are no published instrument procedures at NH40.

Some nearby airports with instrument procedures:

2B3 - Parlin Field Airport (10 nm W)
KCNH - Claremont Municipal Airport (18 nm W)
KLEB - Lebanon Municipal Airport (20 nm NW)
KCON - Concord Municipal Airport (23 nm SE)
KVSF - Hartness State Airport (Springfield) (25 nm W)
 
Loc | Ops | Rwys | IFR | FBO | Links
Com | Nav | Svcs | Stats | Notes
Area around NH40 (Eagles Nest Airport)
 
Road maps at: MapQuest Bing Google
 
Aerial photo
WARNING: Photo may not be current or correct
Aerial photo of NH40 (Eagles Nest Airport)
Do you have a better or more recent aerial photo of Eagles Nest Airport that you would like to share? If so, please send us your photo.

 
Sectional chart

 
Airport distance calculator
Flying to Eagles Nest Airport? Find the distance to fly.

From to NH40

Sunrise and sunset
Times for 31-May-2020
 Local
(UTC-4)
 Zulu
(UTC)
Morning civil twilight04:3608:36
Sunrise05:1109:11
Sunset20:2000:20
Evening civil twilight20:5500:55

Current date and time
Zulu (UTC)  31-May-2020 09:51:39
Local (UTC-4)  31-May-2020 05:51:39
 
METAR
KLEB 
20nm NW 
310941Z AUTO 35012KT 10SM BKN028 10/03 A2997 RMK AO2 T01000033
KCON 
23nm SE 
310851Z AUTO 31020G25KT 10SM SCT042 13/06 A2990 RMK AO2 SLP123 T01330056 53021
K1P1 
24nm N 
310935Z AUTO 28009G17KT 10SM -SN BKN027 BKN033 OVC040 09/05 A2994 RMK AO2 T00930045
KVSF 
25nm W 
310854Z AUTO 33009G17KT 290V360 10SM FEW032 11/04 A2997 RMK AO2 SLP147 T01060039 53028 $
KLCI 
25nm NE 
310856Z AUTO 30012G16KT 10SM CLR 12/06 A2991 RMK AO2 SLP126 T01170056 53023
KEEN 
34nm SW 
310856Z AUTO 33008G14KT 10SM CLR 12/05 A2994 RMK AO2 SLP143 6//// T01220050 53019 $
KMHT 
36nm SE 
310853Z 32009G14KT 10SM BKN047 16/08 A2987 RMK AO2 SLP125 T01610078 53014
KAFN 
36nm S 
310852Z AUTO 30007KT 280V350 10SM CLR 12/04 A2992 RMK AO2 SLP134 T01220039 53013
TAF
KLEB 
20nm NW 
310651Z 3107/0106 31011KT P6SM SCT045 FM311300 33016G24KT P6SM FEW250 FM312300 34003KT P6SM SCT100
KCON 
23nm SE 
310521Z 3106/0106 28009KT P6SM BKN080 FM311000 31014G24KT P6SM FEW250 FM010000 32004KT P6SM SCT100
NOTAMs
Click for the latest NOTAMs
NOTAMs are issued by the DoD/FAA and will open in a separate window not controlled by AirNav.

 

 
 

Would you like to see your business listed on this page?

 If your business provides an interesting product or service to pilots, flight crews, aircraft, or users of the Eagles Nest Airport, you should consider listing it here.  To start the listing process, click on the button below
 
Add a business
 

Other Pages about Eagles Nest Airport

Update a link
 
Copyright © AirNav, LLC. All rights reserved. Privacy Policy  Contact